1521925200.26,23424,10.94,72390.3,-10.67,-39.97,-40.59,0,*6F
1521925201.5,23425,10.94,72390.8,-10.67,-40.03,-40.73,0,*65
1521925202.75,23426,10.94,72390.3,-10.67,-40.03,-40.73,0,*66
1521925204.0,23427,10.88,72386.0,-10.67,-40.15,-40.91,0,*6C
1521925205.29,23428,10.94,72388.3,-10.67,-40.21,-40.97,0,*62
1521925206.57,23429,10.94,72394.5,-10.67,-40.35,-40.97,0,*66
1521925207.83,23430,10.94,72392.0,-10.69,-40.21,-40.85,0,*66
1521925209.1,23431,10.94,72392.0,-10.67,-40.15,-40.79,0,*6D
1521925210.38,23432,10.94,72390.3,-10.69,-40.09,-40.85,0,*6E
1521925211.65,23433,10.94,72392.5,-10.69,-40.09,-40.79,0,*6C
1521925212.89,23434,10.94,72390.5,-10.69,-40.09,-40.65,0,*66
1521925214.16,23435,10.94,72392.0,-10.69,-40.09,-40.79,0,*6A
1521925215.45,23436,10.94,72390.5,-10.67,-39.97,-40.41,0,*65
1521925216.69,23437,10.94,72392.0,-10.67,-40.03,-40.73,0,*66
1521925217.96,23438,10.94,72388.0,-10.69,-40.21,-40.97,0,*6D
1521925219.21,23439,10.94,72390.0,-10.69,-40.21,-40.79,0,*6C
1521925220.43,23440,10.94,72390.5,-10.69,-39.85,-40.47,0,*6F
1521925221.64,23441,10.94,72390.0,-10.69,-40.03,-40.65,0,*6E
1521925222.86,23442,10.94,72388.8,-10.69,-40.03,-40.65,0,*6D
1521925224.13,23443,10.94,72394.5,-10.69,-39.59,-40.29,0,*65
1521925225.37,23444,10.94,72394.0,-10.69,-39.97,-40.65,0,*68
1521925226.58,23445,10.94,72390.8,-10.69,-40.03,-40.65,0,*6A
1521925227.83,23446,10.94,72390.8,-10.69,-40.09,-40.65,0,*63
1521925229.06,23447,10.94,72390.8,-10.69,-40.03,-40.79,0,*65
1521925230.32,23448,10.94,72390.0,-10.71,-40.03,-40.79,0,*63
1521925231.6,23449,10.94,72390.8,-10.71,-40.21,-40.79,0,*62
1521925232.84,23450,10.94,72388.3,-10.71,-40.03,-40.65,0,*67
1521925234.1,23451,10.94,72392.5,-10.71,-39.97,-40.65,0,*65
1521925235.4,23452,10.94,72388.0,-10.71,-39.79,-40.41,0,*60
1521925236.64,23453,10.94,72390.0,-10.71,-39.85,-40.47,0,*64
1521925237.93,23454,10.94,72394.5,-10.71,-39.97,-40.79,0,*6D
1521925239.19,23455,10.94,72388.8,-10.71,-40.09,-40.65,0,*68
1521925240.43,23456,10.94,72392.5,-10.71,-40.03,-40.65,0,*61
1521925241.69,23457,10.94,72390.5,-10.71,-39.97,-40.47,0,*63
1521925242.96,23458,10.94,72394.3,-10.71,-39.85,-40.41,0,*69
1521925244.22,23459,10.94,72388.8,-10.71,-39.97,-40.47,0,*6D
1521925245.48,23460,10.94,72390.5,-10.71,-39.97,-40.47,0,*67
1521925246.77,23461,10.94,72394.0,-10.71,-39.97,-40.59,0,*69
1521925248.01,23462,10.94,72392.5,-10.71,-40.03,-40.65,0,*66
1521925249.31,23463,10.94,72390.5,-10.71,-39.59,-40.41,0,*60
1521925250.58,23464,10.94,72390.5,-10.71,-39.65,-40.21,0,*6E
1521925251.88,23465,10.94,72390.5,-10.71,-39.79,-40.41,0,*64
1521925253.17,23466,10.94,72388.3,-10.71,-40.09,-40.79,0,*65
1521925254.46,23467,10.94,72390.3,-10.71,-40.09,-40.79,0,*64
1521925255.7,23468,10.94,72390.5,-10.71,-39.85,-40.65,0,*6C
1521925256.97,23469,10.94,72392.0,-10.73,-39.53,-40.29,0,*6C
1521925258.19,23470,10.94,72394.0,-10.73,-40.03,-40.73,0,*60
1521925259.41,23471,10.94,72394.3,-10.73,-40.03,-40.73,0,*61
1521925260.62,23472,10.94,72394.0,-10.73,-40.03,-40.73,0,*62
1521925261.9,23473,10.94,72394.5,-10.73,-40.09,-40.85,0,*60
1521925263.12,23474,10.94,72388.0,-10.73,-40.03,-40.73,0,*64
1521925264.34,23475,10.94,72388.8,-10.73,-40.03,-40.73,0,*65
1521925265.62,23476,10.94,72394.3,-10.73,-40.09,-40.85,0,*65
1521925266.84,23477,10.94,72394.3,-10.73,-39.65,-40.35,0,*6B
1521925268.06,23478,10.94,72392.5,-10.73,-39.91,-40.65,0,*6A
1521925269.28,23479,10.94,72392.8,-10.73,-40.03,-40.73,0,*69
1521925270.53,23480,10.94,72394.0,-10.73,-40.09,-40.73,0,*65
1521925271.74,23481,10.94,72394.8,-10.73,-40.03,-40.73,0,*6E
1521925272.97,23482,10.94,72394.3,-10.73,-39.91,-40.53,0,*6A
1521925274.22,23483,10.88,72388.5,-10.73,-40.09,-40.73,0,*66
1521925275.51,23484,10.94,72394.5,-10.71,-40.09,-40.79,0,*69
1521925276.73,23485,10.88,72390.3,-10.73,-39.91,-40.65,0,*68
1521925277.96,23486,10.94,72392.5,-10.73,-39.91,-40.65,0,*6B
1521925279.23,23487,10.94,72392.5,-10.73,-40.09,-40.85,0,*6B
1521925280.49,23488,10.94,72394.8,-10.73,-40.15,-40.85,0,*69
1521925281.72,23489,10.94,72392.3,-10.73,-39.85,-40.53,0,*64
1521925282.94,23490,10.88,72388.3,-10.73,-39.85,-40.65,0,*69
1521925284.19,23491,10.94,72388.5,-10.73,-39.71,-40.35,0,*66
1521925285.41,23492,10.94,72390.8,-10.73,-39.85,-40.53,0,*6E
1521925286.68,23493,10.94,72394.0,-10.77,-39.97,-40.59,0,*62
1521925287.9,23494,10.94,72390.0,-10.77,-40.15,-40.91,0,*65
1521925289.14,23495,10.94,72392.0,-10.75,-40.03,-40.73,0,*6D
1521925290.41,23496,10.94,72392.0,-10.75,-39.71,-40.35,0,*67
1521925291.66,23497,10.94,72392.8,-10.75,-39.85,-40.53,0,*6D
1521925292.91,23498,10.94,72394.3,-10.75,-39.65,-40.35,0,*6C
1521925294.15,23499,10.94,72388.8,-10.75,-39.91,-40.47,0,*63
1521925295.4,23500,10.94,72392.3,-10.75,-39.91,-40.53,0,*67
1521925296.64,23501,10.94,72390.3,-10.77,-39.71,-40.35,0,*6A
1521925297.88,23502,10.94,72392.0,-10.75,-39.65,-40.47,0,*6B
1521925299.13,23503,10.88,72390.5,-10.75,-39.85,-40.53,0,*61
1521925300.41,23504,10.94,72394.3,-10.75,-39.91,-40.41,0,*60
1521925301.66,23505,10.94,72394.3,-10.77,-39.79,-40.53,0,*66
1521925302.91,23506,10.94,72392.5,-10.75,-39.91,-40.53,0,*61
1521925304.2,23507,10.94,72390.5,-10.75,-39.53,-40.29,0,*63
1521925305.45,23508,10.88,72386.5,-10.75,-39.91,-40.53,0,*6F
1521925306.69,23509,10.94,72394.3,-10.77,-40.15,-40.79,0,*66
1521925307.96,23510,10.88,72390.8,-10.75,-39.71,-40.53,0,*68
1521925309.21,23511,10.94,72392.5,-10.75,-39.85,-40.53,0,*62
1521925310.46,23512,10.94,72392.8,-10.75,-39.91,-40.53,0,*64
1521925311.73,23513,10.94,72392.5,-10.77,-40.09,-40.59,0,*62
1521925312.94,23514,10.94,72392.3,-10.77,-39.85,-40.35,0,*65
1521925314.16,23515,10.94,72390.8,-10.77,-39.91,-40.53,0,*61
1521925315.38,23516,10.94,72392.0,-10.77,-39.91,-40.73,0,*60
1521925316.63,23517,10.88,72388.3,-10.77,-39.91,-40.59,0,*69
1521925317.87,23518,10.94,72392.5,-10.75,-40.03,-40.65,0,*6E
1521925319.11,23519,10.94,72392.5,-10.77,-39.59,-40.15,0,*6B
1521925320.33,23520,10.94,72388.8,-10.77,-39.91,-40.53,0,*67
1521925321.58,23521,10.94,72394.5,-10.77,-39.79,-40.53,0,*60
1521925322.82,23522,10.94,72394.3,-10.77,-39.79,-40.35,0,*63
1521925324.08,23523,10.94,72394.3,-10.77,-39.53,-40.29,0,*67
1521925325.3,23524,10.94,72394.3,-10.77,-39.91,-40.73,0,*61
1521925326.54,23525,10.88,72390.5,-10.77,-39.91,-40.41,0,*61
1521925327.84,23526,10.88,72390.5,-10.75,-39.53,-40.09,0,*62
1521925329.08,23527,10.88,72388.8,-10.75,-39.65,-40.35,0,*69
1521925330.33,23528,10.94,72390.0,-10.77,-39.79,-40.53,0,*69
1521925331.6,23529,10.94,72398.3,-10.75,-39.71,-40.35,0,*62
1521925332.85,23530,10.88,72388.8,-10.77,-39.79,-40.53,0,*60
1521925334.12,23531,10.94,72390.8,-10.77,-39.71,-40.59,0,*63
1521925335.34,23532,10.94,72394.0,-10.77,-39.91,-40.53,0,*64
1521925336.61,23533,10.88,72388.8,-10.77,-39.71,-40.41,0,*68
1521925337.82,23534,10.94,72392.3,-10.77,-39.91,-40.53,0,*62
1521925339.09,23535,10.94,72392.8,-10.77,-39.41,-39.97,0,*68
1521925340.33,23536,10.94,72396.5,-10.77,-39.71,-40.35,0,*6E
1521925341.57,23537,10.94,72392.3,-10.75,-39.65,-40.35,0,*68
1521925342.84,23538,10.94,72394.5,-10.75,-39.65,-40.29,0,*6A
1521925344.11,23539,10.94,72392.3,-10.75,-39.35,-40.09,0,*6C
1521925345.4,23540,10.88,72388.0,-10.75,-39.53,-40.09,0,*62
1521925346.64,23541,10.94,72390.8,-10.77,-39.41,-40.15,0,*6F
1521925347.91,23542,10.94,72394.5,-10.75,-39.47,-40.09,0,*65
1521925349.16,23543,10.88,72388.5,-10.75,-39.47,-40.03,0,*6E
1521925350.43,23544,10.94,72394.3,-10.77,-39.71,-40.41,0,*68
1521925351.7,23545,10.94,72394.8,-10.75,-39.71,-40.47,0,*6D
1521925352.95,23546,10.94,72392.3,-10.77,-39.79,-40.53,0,*61
1521925354.24,23547,10.94,72390.5,-10.75,-39.29,-39.71,0,*69
1521925355.52,23548,10.94,72394.5,-10.75,-39.53,-40.29,0,*68
1521925356.79,23549,10.88,72390.8,-10.75,-39.53,-40.35,0,*64
1521925358.06,23550,10.94,72394.5,-10.75,-39.71,-40.47,0,*69
1521925359.31,23551,10.88,72390.8,-10.75,-39.85,-40.53,0,*66
1521925360.58,23552,10.94,72394.5,-10.75,-39.71,-40.47,0,*6B
1521925361.8,23553,10.94,72394.0,-10.73,-39.91,-40.73,0,*65
1521925363.05,23554,10.94,72392.3,-10.75,-39.85,-40.47,0,*66
1521925364.32,23555,10.94,72392.3,-10.75,-39.71,-40.47,0,*6C
1521925365.59,23556,10.94,72392.8,-10.75,-39.71,-40.35,0,*6A
1521925366.88,23557,10.94,72392.5,-10.75,-39.53,-40.29,0,*66
1521925368.15,23558,10.94,72394.5,-10.75,-39.71,-40.53,0,*64
1521925369.4,23559,10.94,72394.8,-10.77,-39.79,-40.53,0,*6F
1521925370.66,23560,10.94,72390.8,-10.75,-39.53,-40.35,0,*6F
1521925371.94,23561,10.88,72392.5,-10.75,-39.65,-40.09,0,*64
1521925373.23,23562,10.94,72394.8,-10.75,-39.71,-40.29,0,*60
1521925374.48,23563,10.94,72394.0,-10.75,-39.91,-40.65,0,*67
1521925375.73,23564,10.88,72388.3,-10.75,-39.91,-40.73,0,*67
1521925377.0,23565,10.88,72390.0,-10.75,-40.03,-40.85,0,*6A
1521925378.28,23566,10.88,72392.8,-10.75,-39.71,-40.53,0,*69
1521925379.52,23567,10.94,72392.8,-10.75,-39.85,-40.47,0,*66
1521925380.77,23568,10.94,72392.5,-10.77,-39.91,-40.59,0,*61
1521925382.04,23569,10.94,72392.5,-10.77,-39.71,-40.41,0,*67
1521925383.31,23570,10.94,72392.3,-10.77,-39.59,-40.41,0,*65
1521925384.58,23571,10.94,72394.3,-10.77,-39.59,-40.09,0,*68
1521925385.82,23572,10.94,72392.5,-10.77,-39.47,-40.29,0,*66
1521925387.09,23573,10.94,72394.5,-10.75,-39.47,-40.29,0,*65
1521925388.34,23574,10.94,72394.5,-10.75,-39.85,-40.65,0,*64
1521925389.61,23575,10.94,72392.5,-10.75,-39.71,-40.53,0,*6B
1521925390.83,23576,10.94,72392.5,-10.77,-39.91,-40.47,0,*61
1521925392.1,23577,10.94,72392.0,-10.75,-39.71,-40.35,0,*69
1521925393.37,23578,10.94,72392.8,-10.75,-39.65,-40.29,0,*6E
1521925394.66,23579,10.94,72392.5,-10.75,-39.53,-40.29,0,*6A
1521925395.91,23580,10.94,72394.3,-10.77,-39.79,-40.53,0,*6B
1521925397.15,23581,10.94,72394.5,-10.75,-39.85,-40.53,0,*6B
1521925398.4,23582,10.94,72394.0,-10.75,-39.65,-40.35,0,*66
1521925399.66,23583,10.94,72394.5,-10.75,-39.53,-40.35,0,*62
1521925400.94,23584,10.94,72392.3,-10.77,-39.59,-40.41,0,*6E
1521925402.18,23585,10.94,72394.8,-10.75,-39.65,-40.35,0,*61
1521925403.45,23586,10.94,72394.0,-10.77,-39.59,-40.41,0,*6C
1521925404.69,23587,10.94,72394.3,-10.77,-39.53,-40.35,0,*64
1521925405.93,23588,10.94,72392.5,-10.75,-39.85,-40.47,0,*67
1521925407.21,23589,10.94,72392.5,-10.77,-39.79,-40.59,0,*68
1521925408.45,23590,10.94,72394.0,-10.75,-39.85,-40.53,0,*6B
1521925409.67,23591,10.88,72392.5,-10.77,-39.91,-40.53,0,*6D
1521925410.92,23592,10.88,72390.8,-10.77,-39.59,-40.35,0,*6A
1521925412.19,23593,10.88,72390.3,-10.77,-39.59,-40.41,0,*68
1521925413.49,23594,10.94,72392.3,-10.75,-39.71,-40.59,0,*6E
1521925414.75,23595,10.94,72394.8,-10.75,-39.53,-40.47,0,*60
1521925416.03,23596,10.88,72388.8,-10.75,-39.71,-40.53,0,*66
1521925417.28,23597,10.88,72392.0,-10.77,-39.91,-40.59,0,*61
1521925418.52,23598,10.94,72394.3,-10.77,-39.79,-40.53,0,*62
1521925419.76,23599,10.88,72390.5,-10.77,-39.97,-40.73,0,*61
1521925421.0,23600,10.88,72392.0,-10.77,-40.09,-40.73,0,*6B
1521925422.23,23601,10.88,72392.3,-10.77,-39.97,-40.73,0,*63
1521925423.47,23602,10.88,72392.8,-10.77,-39.97,-40.73,0,*60
1521925424.71,23603,10.88,72394.3,-10.77,-39.91,-40.59,0,*6F
1521925425.96,23604,10.94,72392.5,-10.77,-39.71,-40.53,0,*6C
1521925427.17,23605,10.94,72394.3,-10.77,-39.91,-40.53,0,*63
1521925428.41,23606,10.88,72390.8,-10.77,-39.53,-40.15,0,*6C
1521925429.67,23607,10.88,72392.0,-10.77,-39.41,-39.97,0,*6A
1521925430.91,23608,10.88,72392.8,-10.77,-39.71,-40.35,0,*60
1521925432.16,23609,10.88,72392.5,-10.77,-39.91,-40.41,0,*6C
1521925433.4,23610,10.94,72394.0,-10.77,-40.09,-40.73,0,*6A
1521925434.64,23611,10.88,72390.5,-10.77,-39.71,-40.35,0,*68
1521925435.88,23612,10.94,72394.8,-10.77,-39.91,-40.59,0,*6F
1521925437.12,23613,10.88,72392.5,-10.77,-39.53,-40.15,0,*68
1521925438.33,23614,10.88,72392.3,-10.77,-39.35,-39.91,0,*6D
1521925439.56,23615,10.88,72394.5,-10.77,-39.53,-40.15,0,*6E
1521925440.81,23616,10.88,72390.3,-10.77,-39.59,-40.53,0,*65
1521925442.06,23617,10.88,72390.0,-10.77,-39.79,-40.53,0,*66
1521925443.28,23618,10.88,72394.8,-10.77,-39.91,-40.73,0,*6D
1521925444.52,23619,10.88,72390.5,-10.75,-39.91,-40.65,0,*69
1521925445.8,23620,10.88,72394.0,-10.77,-39.79,-40.59,0,*68
1521925447.07,23621,10.88,72392.8,-10.77,-39.79,-40.59,0,*69
1521925448.31,23622,10.88,72394.5,-10.77,-39.97,-40.73,0,*62
1521925449.55,23623,10.94,72392.0,-10.77,-39.91,-40.59,0,*6D
1521925450.77,23624,10.88,72394.0,-10.77,-39.91,-40.53,0,*60
1521925451.99,23625,10.88,72392.8,-10.77,-39.91,-40.53,0,*61
1521925453.22,23626,10.88,72392.8,-10.77,-39.97,-40.73,0,*66
1521925454.45,23627,10.94,72392.5,-10.77,-40.15,-40.91,0,*6F
1521925455.68,23628,10.88,72392.0,-10.77,-39.97,-40.53,0,*6A
1521925456.96,23629,10.94,72392.3,-10.77,-39.71,-40.59,0,*69
1521925458.17,23630,10.88,72392.3,-10.77,-39.91,-40.53,0,*65
1521925459.42,23631,10.88,72394.0,-10.79,-39.91,-40.73,0,*68
1521925460.68,23632,10.88,72392.8,-10.79,-39.53,-40.15,0,*65
1521925461.95,23633,10.94,72396.8,-10.79,-39.53,-40.35,0,*66
1521925463.22,23634,10.94,72394.8,-10.79,-39.71,-40.35,0,*61
1521925464.49,23635,10.88,72390.3,-10.79,-39.71,-40.53,0,*60
1521925465.76,23636,10.88,72388.8,-10.79,-39.71,-40.35,0,*63
1521925467.0,23637,10.94,72394.3,-10.79,-39.35,-39.91,0,*62
1521925468.26,23638,10.88,72390.5,-10.79,-39.53,-40.15,0,*6F
1521925469.54,23639,10.88,72394.3,-10.79,-39.71,-40.53,0,*6C
1521925470.8,23640,10.88,72392.3,-10.79,-39.97,-40.73,0,*68
1521925472.07,23641,10.88,72392.0,-10.79,-39.97,-40.73,0,*69
1521925473.37,23642,10.94,72392.5,-10.79,-39.71,-40.41,0,*63
1521925474.63,23643,10.94,72396.8,-10.79,-39.53,-40.15,0,*63
1521925475.93,23644,10.88,72392.5,-10.79,-39.79,-40.59,0,*64
1521925477.24,23645,10.88,72390.5,-10.79,-39.59,-40.41,0,*6E
1521925478.49,23646,10.94,72396.0,-10.79,-39.91,-40.53,0,*6A
1521925479.79,23647,10.88,72390.5,-10.79,-39.71,-40.41,0,*66
1521925481.06,23648,10.94,72394.3,-10.79,-39.91,-40.59,0,*6E
1521925482.31,23649,10.88,72394.3,-10.81,-39.85,-40.79,0,*6F
1521925483.58,23650,10.94,72394.3,-10.79,-39.91,-40.59,0,*67
1521925484.86,23651,10.88,72396.3,-10.81,-39.79,-40.59,0,*67
1521925486.13,23652,10.94,72398.5,-10.79,-40.09,-40.73,0,*62
1521925487.41,23653,10.88,72392.3,-10.79,-39.71,-40.53,0,*60
1521925488.71,23654,10.88,72392.0,-10.79,-39.79,-40.41,0,*6C
1521925489.98,23655,10.88,72390.8,-10.81,-39.59,-40.21,0,*6E
1521925491.28,23656,10.88,72394.0,-10.79,-39.41,-40.09,0,*69
1521925492.53,23657,10.88,72394.3,-10.81,-39.79,-40.47,0,*6E
1521925493.8,23658,10.88,72394.3,-10.79,-39.91,-40.41,0,*66
1521925495.04,23659,10.94,72394.8,-10.81,-39.97,-40.65,0,*60
1521925496.29,23660,10.88,72394.5,-10.81,-39.85,-40.59,0,*66
1521925497.57,23661,10.88,72392.5,-10.79,-39.91,-40.41,0,*6C
1521925498.87,23662,10.88,72394.5,-10.79,-39.79,-40.59,0,*60
1521925500.17,23663,10.88,72394.0,-10.79,-39.71,-40.41,0,*60
1521925501.42,23664,10.88,72394.5,-10.81,-39.79,-40.47,0,*6E
1521925502.67,23665,10.88,72392.3,-10.81,-39.65,-40.21,0,*62
1521925503.89,23666,10.88,72394.0,-10.81,-39.35,-39.91,0,*61
1521925505.17,23667,10.88,72392.3,-10.81,-39.79,-40.59,0,*62
1521925506.43,23668,10.88,72390.3,-10.81,-39.97,-40.79,0,*6F
1521925507.7,23669,10.88,72394.0,-10.79,-39.79,-40.65,0,*64
1521925508.98,23670,10.88,72392.5,-10.81,-39.79,-40.59,0,*64
1521925510.25,23671,10.88,72392.5,-10.81,-39.97,-40.59,0,*65
1521925511.47,23672,10.88,72394.8,-10.81,-39.85,-40.65,0,*6A
1521925512.73,23673,10.88,72392.5,-10.81,-39.97,-40.79,0,*65
1521925513.98,23674,10.88,72394.0,-10.81,-39.85,-40.59,0,*63
1521925515.2,23675,10.88,72394.3,-10.81,-39.65,-40.47,0,*63
1521925516.48,23676,10.94,72398.0,-10.81,-39.59,-40.21,0,*6F
1521925517.76,23677,10.88,72394.8,-10.81,-39.79,-40.59,0,*63
1521925519.0,23678,10.88,72392.0,-10.81,-40.03,-40.79,0,*6D
1521925520.26,23679,10.88,72392.8,-10.81,-40.15,-40.97,0,*6B
1521925521.47,23680,10.88,72392.3,-10.81,-40.03,-40.65,0,*67
1521925522.75,23681,10.88,72394.0,-10.81,-39.79,-40.59,0,*6A
1521925523.97,23682,10.88,72392.0,-10.81,-39.85,-40.65,0,*65
1521925525.22,23683,10.88,72392.5,-10.81,-39.79,-40.47,0,*67
1521925526.5,23684,10.88,72392.5,-10.81,-39.59,-40.41,0,*64
1521925527.75,23685,10.88,72394.8,-10.81,-39.79,-40.47,0,*61
1521925528.97,23686,10.94,72392.8,-10.81,-39.47,-40.15,0,*68
1521925530.22,23687,10.88,72392.8,-10.81,-39.65,-40.41,0,*68
1521925531.47,23688,10.88,72392.3,-10.81,-39.65,-40.21,0,*61
1521925532.69,23689,10.88,72396.3,-10.81,-39.47,-40.15,0,*67
1521925533.97,23690,10.88,72394.8,-10.81,-39.79,-40.41,0,*63
1521925535.22,23691,10.88,72392.3,-10.81,-39.65,-40.41,0,*6F
1521925536.47,23692,10.94,72396.5,-10.81,-39.65,-40.21,0,*6A
1521925537.73,23693,10.88,72394.0,-10.79,-39.53,-40.15,0,*6E
1521925539.0,23694,10.88,72394.0,-10.79,-39.53,-40.15,0,*69
1521925540.24,23695,10.88,72396.0,-10.81,-39.65,-40.21,0,*6D
1521925541.49,23696,10.88,72394.0,-10.81,-39.79,-40.47,0,*63
1521925542.71,23697,10.88,72392.0,-10.81,-39.47,-40.03,0,*6F
1521925543.97,23698,10.88,72394.3,-10.79,-39.29,-39.91,0,*6A
1521925545.25,23699,10.88,72392.5,-10.81,-39.59,-40.41,0,*68
1521925546.5,23700,10.88,72392.3,-10.81,-39.65,-40.21,0,*60
1521925547.78,23701,10.88,72392.0,-10.81,-39.59,-40.21,0,*6E
1521925549.05,23702,10.88,72390.5,-10.81,-39.97,-40.59,0,*60
1521925550.29,23703,10.88,72392.8,-10.81,-39.47,-40.21,0,*63
1521925551.54,23704,10.88,72394.8,-10.81,-39.79,-40.47,0,*69
1521925552.78,23705,10.88,72392.5,-10.81,-39.97,-40.65,0,*68
1521925554.02,23706,10.88,72392.0,-10.81,-39.97,-40.65,0,*6B
1521925555.27,23707,10.88,72392.5,-10.81,-40.15,-40.79,0,*63
1521925556.51,23708,10.88,72394.8,-10.81,-39.97,-40.65,0,*65
1521925557.77,23709,10.88,72392.8,-10.81,-39.97,-40.59,0,*6B
1521925559.01,23710,10.88,72394.3,-10.81,-39.97,-40.65,0,*6C
1521925560.23,23711,10.94,72398.3,-10.81,-39.85,-40.47,0,*6E
1521925561.51,23712,10.88,72394.0,-10.83,-39.85,-40.59,0,*60
1521925562.75,23713,10.88,72394.5,-10.87,-39.91,-40.53,0,*6A
1521925564.03,23714,10.88,72394.8,-10.83,-39.79,-40.47,0,*6A
1521925565.32,23715,10.88,72396.0,-10.87,-39.53,-40.21,0,*67
1521925566.59,23716,10.88,72392.8,-10.83,-39.47,-40.21,0,*65
1521925567.86,23717,10.88,72394.5,-10.87,-39.65,-40.21,0,*60
1521925569.13,23718,10.88,72392.8,-10.83,-39.85,-40.59,0,*6A
1521925570.41,23719,10.88,72392.5,-10.83,-39.85,-40.59,0,*6B
1521925571.65,23720,10.88,72394.5,-10.83,-39.85,-40.47,0,*6E
1521925572.91,23721,10.88,72392.5,-10.83,-39.97,-40.47,0,*6C
1521925574.15,23722,10.88,72392.8,-10.87,-40.03,-40.73,0,*6F
1521925575.4,23723,10.88,72394.3,-10.87,-39.91,-40.47,0,*6C
1521925576.64,23724,10.88,72394.8,-10.87,-39.91,-40.65,0,*6B
1521925577.92,23725,10.88,72390.0,-10.83,-39.79,-40.47,0,*68
1521925579.21,23726,10.88,72396.0,-10.87,-39.71,-40.29,0,*6F
1521925580.49,23727,10.88,72392.8,-10.83,-39.65,-40.41,0,*61
1521925581.78,23728,10.94,72396.5,-10.87,-39.53,-40.21,0,*69
1521925583.02,23729,10.88,72394.0,-10.83,-39.47,-40.15,0,*6E
1521925584.27,23730,10.88,72392.5,-10.83,-39.47,-40.15,0,*66
1521925585.54,23731,10.88,72392.0,-10.83,-39.65,-40.21,0,*60
1521925586.84,23732,10.94,72398.0,-10.83,-39.59,-40.41,0,*6A
1521925588.09,23733,10.88,72396.8,-10.83,-39.47,-40.15,0,*65
1521925589.38,23734,10.88,72392.3,-10.87,-39.53,-40.21,0,*64
1521925590.65,23735,10.88,72392.8,-10.83,-39.59,-40.15,0,*6C
1521925591.93,23736,10.88,72394.8,-10.83,-39.85,-40.59,0,*66
1521925593.2,23737,10.88,72396.0,-10.83,-39.65,-40.41,0,*60
1521925594.47,23738,10.88,72392.0,-10.83,-39.41,-40.15,0,*68
1521925595.74,23739,10.88,72394.8,-10.87,-39.71,-40.53,0,*6C
1521925597.02,23740,10.88,72396.0,-10.83,-39.59,-40.47,0,*69
1521925598.26,23741,10.88,72396.0,-10.83,-39.65,-40.47,0,*67
1521925599.56,23742,10.88,72388.0,-10.83,-39.79,-40.21,0,*69
1521925600.8,23743,10.88,72394.0,-10.83,-39.85,-40.47,0,*6B
1521925602.08,23744,10.88,72392.0,-10.83,-39.65,-40.21,0,*62
1521925603.34,23745,10.88,72396.5,-10.87,-39.35,-40.09,0,*68
1521925604.58,23746,10.88,72392.8,-10.83,-39.47,-40.03,0,*60
1521925605.86,23747,10.88,72392.0,-10.83,-39.65,-40.41,0,*67
1521925607.13,23748,10.88,72394.5,-10.83,-39.65,-40.41,0,*68
1521925608.4,23749,10.88,72394.3,-10.83,-39.65,-40.21,0,*6F
1521925609.71,23750,10.88,72392.5,-10.83,-39.79,-40.41,0,*6C
1521925610.98,23751,10.88,72394.3,-10.83,-39.65,-40.21,0,*66
1521925612.28,23752,10.88,72398.3,-10.87,-39.15,-39.79,0,*65
1521925613.55,23753,10.88,72394.8,-10.83,-39.23,-39.65,0,*68
1521925614.82,23754,10.88,72392.0,-10.83,-39.79,-40.47,0,*6E
1521925616.13,23755,10.88,72394.5,-10.83,-39.79,-40.41,0,*69
1521925617.37,23756,10.88,72392.3,-10.83,-39.65,-40.03,0,*61
1521925618.64,23757,10.88,72392.3,-10.83,-39.65,-40.21,0,*60
1521925619.91,23758,10.88,72392.0,-10.83,-39.65,-40.21,0,*6F
1521925621.21,23759,10.88,72394.8,-10.83,-39.79,-40.41,0,*65
1521925622.51,23760,10.88,72392.0,-10.83,-39.59,-40.21,0,*6B
1521925623.81,23761,10.88,72396.5,-10.83,-39.59,-40.21,0,*6A
1521925625.08,23762,10.88,72392.0,-10.83,-39.65,-40.21,0,*66
1521925626.35,23763,10.88,72398.0,-10.87,-39.71,-40.47,0,*66
1521925627.66,23764,10.88,72394.0,-10.83,-39.79,-40.41,0,*6B
1521925628.95,23765,10.88,72392.0,-10.83,-39.41,-39.97,0,*64
1521925630.25,23766,10.88,72392.5,-10.83,-39.79,-40.41,0,*69
1521925631.56,23767,10.88,72394.0,-10.83,-39.59,-40.21,0,*6C
1521925632.82,23768,10.88,72394.8,-10.83,-39.41,-40.03,0,*6A
1521925634.09,23769,10.88,72392.5,-10.87,-39.35,-40.09,0,*66
1521925635.39,23770,10.88,72392.0,-10.83,-39.59,-40.41,0,*6C
1521925636.7,23771,10.88,72392.5,-10.83,-39.79,-40.41,0,*6F
1521925637.92,23772,10.88,72396.3,-10.81,-39.65,-40.15,0,*62
1521925639.19,23773,10.88,72390.8,-10.83,-39.79,-40.47,0,*6B
1521925640.45,23774,10.88,72396.0,-10.83,-39.29,-39.85,0,*69
1521925641.72,23775,10.88,72396.8,-10.81,-39.29,-39.79,0,*69
1521925642.97,23776,10.88,72394.3,-10.81,-39.59,-40.15,0,*69
1521925644.25,23777,10.88,72390.8,-10.81,-39.79,-40.41,0,*6B
1521925645.53,23778,10.88,72394.3,-10.81,-39.79,-40.41,0,*64
1521925646.8,23779,10.88,72398.3,-10.81,-39.97,-40.59,0,*6C
1521925648.05,23780,10.88,72394.0,-10.81,-39.79,-40.47,0,*65
1521925649.33,23781,10.88,72394.3,-10.81,-39.79,-40.21,0,*64
1521925650.6,23782,10.88,72394.3,-10.83,-39.47,-40.21,0,*68
1521925651.87,23783,10.88,72392.3,-10.83,-39.65,-40.41,0,*6F
1521925653.16,23784,10.88,72392.3,-10.83,-39.29,-39.97,0,*65
1521925654.41,23785,10.88,72396.0,-10.83,-39.47,-40.15,0,*68
1521925655.71,23786,10.88,72394.5,-10.83,-39.59,-40.41,0,*65
1521925657.02,23787,10.88,72394.3,-10.83,-39.79,-40.41,0,*66
1521925658.29,23788,10.88,72394.0,-10.87,-39.65,-40.21,0,*66
1521925659.53,23789,10.88,72394.0,-10.83,-39.47,-40.03,0,*63
1521925660.77,23790,10.88,72390.8,-10.83,-39.47,-40.15,0,*6C
1521925662.05,23791,10.88,72392.3,-10.81,-39.59,-40.21,0,*67
1521925663.3,23792,10.88,72394.5,-10.81,-39.79,-40.15,0,*61
1521925664.58,23793,10.88,72392.8,-10.81,-39.59,-40.21,0,*65
1521925665.87,23794,10.88,72394.3,-10.83,-39.97,-40.59,0,*6D
1521925667.14,23795,10.88,72396.0,-10.81,-39.97,-40.59,0,*6E
1521925668.36,23796,10.88,72396.5,-10.81,-39.85,-40.47,0,*61
1521925669.62,23797,10.88,72392.3,-10.81,-39.97,-40.59,0,*6C
1521925670.87,23798,10.88,72390.8,-10.81,-39.79,-40.47,0,*6C
1521925672.13,23799,10.88,72394.3,-10.81,-39.59,-40.15,0,*68
1521925673.39,23800,10.88,72396.0,-10.79,-39.53,-40.15,0,*6A
1521925674.67,23801,10.88,72394.0,-10.83,-39.59,-40.15,0,*64
1521925675.94,23802,10.88,72392.8,-10.83,-39.79,-40.15,0,*65
1521925677.19,23803,10.88,72394.3,-10.83,-39.47,-40.15,0,*69
1521925678.43,23804,10.88,72392.3,-10.83,-39.47,-40.03,0,*69
1521925679.7,23805,10.88,72392.5,-10.83,-39.65,-40.41,0,*6E
1521925680.97,23806,10.88,72394.8,-10.81,-39.97,-40.59,0,*6B
1521925682.25,23807,10.88,72394.8,-10.79,-39.79,-40.35,0,*67
1521925683.46,23808,10.88,72392.0,-10.81,-39.85,-40.47,0,*69
1521925684.7,23809,10.88,72394.0,-10.81,-39.41,-40.03,0,*60
1521925685.98,23810,10.88,72394.5,-10.81,-39.59,-40.21,0,*61
1521925687.2,23811,10.88,72398.8,-10.81,-39.65,-40.47,0,*6F
1521925688.49,23812,10.88,72394.8,-10.79,-39.53,-40.09,0,*64
1521925689.77,23813,10.88,72392.3,-10.83,-39.65,-40.41,0,*69
1521925691.07,23814,10.88,72392.8,-10.83,-39.79,-40.41,0,*63
1521925692.35,23815,10.88,72396.3,-10.83,-39.65,-40.41,0,*6F
1521925693.57,23816,10.88,72396.8,-10.81,-39.65,-40.15,0,*6F
1521925694.84,23817,10.88,72392.5,-10.81,-39.97,-40.59,0,*6B